Terminal Aerodrome Forecast
Issued by NWS

Home | Current Version | Previous Version | Text Only | Print | Product List | Glossary On
Versions: 1 2 3 4 5 6 7 8 9 10 11 12 13 14 15 16 17 18 19 20 21 22 23 24 25 26 27 28
000
FTUS43 KGLD 251132
TAFMCK
TAF
KMCK 251132Z 2512/2612 25009KT P6SM SKC
     FM251800 23015G20KT P6SM OVC090
     FM252200 26015G25KT P6SM OVC060
     FM260200 30012KT P6SM OVC040=

USA.gov is the U.S. government's official web portal to all federal, state and local government web resources and services.